Regional Weather Roundup
Issued by NWS

Home | Current Version | Previous Version | Graphics & Text | Print | Product List | Glossary Off
Versions: 1 2 3 4 5 6 7 8 9 10 11 12 13 14 15 16 17 18 19 20 21 22 23 24 25 26 27 28 29 30 31 32 33 34 35 36 37 38 39 40 41 42 43 44 45 46 47 48 49 50

000
ASUS43 KMPX 270801
RWRMN
WEATHER ROUNDUP FOR MINNESOTA
NATIONAL WEATHER SERVICE TWIN CITIES/CHANHASSEN MN
300 AM CDT THU JUL 27 2017


NOTE: "FAIR" INDICATES FEW OR NO CLOUDS BELOW 12,000 FEET WITH NO
SIGNIFICANT WEATHER AND/OR OBSTRUCTIONS TO VISIBILITY. N/A MEANS
CURRENT SKY AND/OR WEATHER CONDITIONS ARE NOT AVAILABLE.

MNZ060>063-068>070-270900-
   Twin Cities Metro

CITY           SKY/WX    TMP DP  RH WIND       PRES   REMARKS
TWIN CITIES    CLEAR     69  62  78 N6        30.04S
ST PAUL        CLEAR     67  63  87 W3        30.04R
CRYSTAL        CLEAR     66  59  78 NW3       30.03S
BLAINE         CLEAR     66  61  82 CALM      30.05R
LAKEVILLE      CLEAR     64  64 100 NW3       30.04S
EDEN PRAIRIE   CLEAR     68  62  81 N6        30.04R
SOUTH ST PAUL  CLEAR     68  62  80 NW3       30.03S
LAKE ELMO      FAIR      63  63 100 CALM      30.05S
$$
MNZ001>005-007-008-013>017-022>024-027-028-270900-
   Northwest Minnesota

CITY           SKY/WX    TMP DP  RH WIND       PRES   REMARKS
BEMIDJI        CLEAR     56  54  95 NW6       30.11S
HALLOCK        CLEAR     61  57  88 CALM      30.10S
ROSEAU         MOCLDY    64  61  88 W7        30.10S
WARROAD        MOCLDY    59  55  88 CALM      30.10R
CROOKSTON      CLEAR     57  55  94 NW3       30.11S
FOSSTON        CLEAR     57  54  88 CALM      30.12S
DETROIT LAKES  CLEAR     63  59  88 N3        30.13S
MOORHEAD       CLEAR     61  57  88 CALM      30.12R
PARK RAPIDS    CLEAR     58  55  90 NW3       30.11S
MAHNOMEN       FAIR      58  58  97 CALM      30.12S
$$
MNZ006-009>011-018-025>026-270900-
   North Central Minnesota

CITY           SKY/WX    TMP DP  RH WIND       PRES   REMARKS
BAUDETTE       CLEAR     58  57  97 NW3       30.08S
FLAG ISLAND    CLEAR     66  61  82 NW6       30.07S
INTL FALLS     CLEAR     53  52  96 W3        30.07R FOG
WASKISH        CLEAR     64  59  82 CALM      30.09S
BIG FORK       PTCLDY    54  52  94 CALM      30.09S
LONGVILLE      CLEAR     55  55 100 CALM      30.10R
GRAND RAPIDS   CLEAR     58  58 100 CALM      30.11R FOG
CRANE LAKE     CLEAR     52  52 100 CALM      30.08S
ORR            CLEAR     55  54  94 CALM      30.06R
COOK             N/A     55  55 100 CALM      30.08S
WALKER         FAIR      59  57  94 W3        30.11R
$$
MNZ012-019>021-037-270900-
   Northeast Minnesota

CITY           SKY/WX    TMP DP  RH WIND       PRES   REMARKS
DULUTH         CLEAR     59  57  93 CALM      30.07R
ELY            CLEAR     54  54 100 CALM      30.07S
HIBBING        CLEAR     51  51 100 CALM      30.08R
EVELETH        CLEAR     55  52  90 CALM      30.08S
DULUTH HARBOR  CLEAR     64  63  94 CALM      30.05S
TWO HARBORS    CLEAR     64  59  82 CALM      30.04R
SILVER BAY     MOCLDY    63  57  82 CALM      30.03S
GRAND MARAIS     N/A     63  59  87 NW5       30.02R
G MARAIS ARPRT MOCLDY    61  54  77 NW6       30.08R
$$
MNZ029>031-032-039>041-046>048-054>057-064-270900-
   West Central Minnesota

CITY           SKY/WX    TMP DP  RH WIND       PRES   REMARKS
FERGUS FALLS   CLEAR     64  59  82 N3        30.10S
WHEATON        CLEAR     61  57  88 CALM      30.12F
MORRIS         CLEAR     64  61  88 N7        30.09S
ALEXANDRIA     CLEAR     64  61  90 N5        30.12R
ELBOW LAKE     FOG       64  62  92 CALM      30.11S VSB 3/4
WADENA         CLEAR     61  61 100 N3        30.11S
GLENWOOD       CLEAR     64  61  88 N5        30.11S
BENSON         CLEAR     63  61  94 CALM      30.11S
ORTONVILLE     CLEAR     64  61  88 MISG      30.11R
MADISON        CLEAR     63  63 100 NW3       30.10S
WILLMAR        FAIR      66  63  88 CALM      30.10S
$$
MNZ033>034-036-042>043-049>051-058-059-270900-
   Central Minnesota

CITY           SKY/WX    TMP DP  RH WIND       PRES   REMARKS
ST CLOUD       CLEAR     63  62  97 N6        30.07S
SAUK CENTRE    FAIR      64  60  87 N3        30.10S
PAYNESVILLE    CLEAR     62  60  93 CALM      30.10R
AITKIN         FOG       54  52  94 CALM      30.08S VSB 1/2
PINE RIVER     CLEAR     57  57 100 CALM      30.13S
BRAINERD       CLEAR     62  60  93 N6        30.09S
STAPLES        CLEAR     61  57  88 CALM      30.10S
LONG PRAIRIE   FAIR      61  59  94 CALM      30.11R
LITTLE FALLS   FOG       57  55  94 CALM      30.09S VSB 3/4
LITCHFIELD     CLEAR     66  63  88 N3        30.08S
BUFFALO        CLEAR     65  60  82 CALM      30.07S
MAPLE LAKE     CLEAR     65  62  93 NW3       30.08S
HUTCHINSON     CLEAR     65  64  95 NW5       30.08S
$$
MNZ037-044-045-052-053-270900-
   East Central Minnesota

CITY           SKY/WX    TMP DP  RH WIND       PRES   REMARKS
PRINCETON      CLEAR     61  61 100 CALM      30.07R
MORA           CLEAR     63  59  88 CALM      30.08
CAMBRIDGE      CLEAR     64  57  77 CALM      30.04S
RUSH CITY      PTCLDY    61  59  92 N3        30.06S
MOOSE LAKE     CLEAR     61  57  88 CALM      30.05S
HINCKLEY       FAIR      63  61  94 N5        30.06S
CLOQUET        CLEAR     61  55  82 NW6       30.07S
MCGREGOR       CLEAR     59  55  88 CALM      30.09S
$$
MNZ071>073-080-081-089-090-097-098-270900-
   Southwest Minnesota

CITY           SKY/WX    TMP DP  RH WIND       PRES   REMARKS
MONTEVIDEO     CLEAR     63  55  77 N3        30.09S
CANBY          CLEAR     63  60  92 CALM      30.12S
MARSHALL       CLEAR     61  59  93 NW7       30.10S
REDWOOD FALLS  CLEAR     66  61  84 N6        30.07S
OLIVIA         CLEAR     61  59  94 N5        30.07S
PIPESTONE      CLEAR     64  59  82 CALM      30.12R
WINDOM         CLEAR     61  59  94 N6        30.08S
WORTHINGTON    CLEAR     60  58  92 N6        30.10R
JACKSON        CLEAR     61  59  94 CALM      30.09R
TRACY          CLEAR     65  62  89 NW6       30.10S
SLAYTON        HVY RAIN  60  49  66 CALM      30.11S
$$
MNZ065>067-074>077-082>085-091>093-270900-
   South Central Minnesota

CITY           SKY/WX    TMP DP  RH WIND       PRES   REMARKS
MANKATO        CLEAR     64  61  90 CALM      30.06S
NEW ULM        CLEAR     64  61  88 N5        30.06S
ST JAMES       CLEAR     63  61  94 NW3       30.07S
FAIRMONT       CLEAR     63  61  93 N6        30.06S
GLENCOE        CLEAR     65  64  96 NW5       30.06S
FARIBAULT      CLEAR     61  61 100 CALM      30.05S
OWATONNA       CLEAR     61  59  94 CALM      30.05S FOG
WASECA         CLEAR     59  59 100 N3        30.06S
ALBERT LEA     CLEAR     63  63 100 CALM      30.04F
$$
MNZ078>079-086>088-094>096-270900-
   Southeast Minnesota

CITY           SKY/WX    TMP DP  RH WIND       PRES   REMARKS
ROCHESTER      CLEAR     63  62  97 NW7       30.03F
RED WING       CLEAR     63  61  94 CALM      30.02R
STANTON        CLEAR     61  60  95 CALM      30.03S FOG
DODGE CENTER   CLEAR     63  61  94 NW3       30.04F
WINONA         CLOUDY    66  64  94 NW3       30.00S FOG
AUSTIN         CLEAR     63  61  94 CALM      30.03F
PRESTON        CLEAR     64  60  87 N5        30.03S
$$
ABBREVIATIONS USED IN REMARKS
   TC - TEMPERATURES IN CELSIUS
  WCI - WIND CHILL INDEX
   HX - HEAT INDEX
  VSB - VISIBILITY
$$




USA.gov is the U.S. government's official web portal to all federal, state and local government web resources and services.